Location: Franzen
(48.6167°N, 15.3833°E)
Time: 09:42:58
(UTC+00:00)

Meteor 1-20 Rocket - Pass Details

Date: 22 April 2021
Orbit: 819 x 892 km, 81.2° (Epoch: 16 May)

Event Time Altitude Azimuth Distance (km) Brightness Sun altitude
Rises 21:39:26 0° 347° (NNW) 3,500 8.7 -26.5°
Reaches altitude 10° 21:41:55 10° 348° (NNW) 2,550 7.7 -26.7°
Maximum altitude 21:47:44 88° 261° (W) 878 4.1 -27.0°
Enters shadow 21:48:04 80° 179° (S) 887 4.1 -27.0°
